Date,TemperatureHighF,TemperatureAvgF,TemperatureLowF,DewpointHighF,DewpointAvgF,DewpointLowF,HumidityHigh,HumidityAvg,HumidityLow,PressureMaxIn,PressureMinIn,WindSpeedMaxMPH,WindSpeedAvgMPH,GustSpeedMaxMPH,PrecipitationSumIn
2013-3-1,35.5,32.4,29.0,32.9,28.6,25.6,99,86,72,29.75,29.62,8,1,8,0.02
2013-3-2,37.9,30.3,25.8,29.3,25.6,22.5,89,83,70,29.74,29.69,8,1,9,0.01
2013-3-3,34.0,27.5,22.5,27.4,23.7,20.0,90,86,75,29.71,29.65,7,1,9,0.00
2013-3-4,31.3,26.3,22.3,24.6,21.7,18.7,91,83,70,29.89,29.69,11,2,14,0.00
2013-3-5,42.3,30.5,21.7,30.0,25.2,19.2,93,81,59,30.17,29.88,7,1,8,0.00
2013-3-6,32.7,30.5,27.9,31.0,28.6,25.3,98,92,83,30.25,30.14,21,5,23,0.00
2013-3-7,30.9,28.5,26.2,28.9,26.7,23.8,96,93,81,30.22,30.14,14,2,16,0.00
2013-3-8,39.2,31.1,27.1,31.5,26.9,22.9,96,85,64,30.31,30.08,4,0,4,0.07
2013-3-9,53.9,34.1,23.3,25.9,22.1,15.8,90,66,23,30.43,30.28,8,0,8,0.29
2013-3-10,52.2,35.2,16.9,30.5,24.5,15.3,95,69,38,30.48,30.34,6,1,6,0.00
2013-3-11,45.8,39.3,32.3,38.1,32.0,28.7,90,76,52,30.36,30.18,9,2,11,0.00
2013-3-12,47.5,45.0,37.7,47.0,43.9,36.9,99,96,88,30.18,29.76,11,1,13,0.82
2013-3-13,44.2,36.0,27.8,36.9,28.2,22.4,97,75,46,29.86,29.78,12,1,15,0.00
2013-3-14,28.6,23.9,15.8,24.5,15.2,8.2,87,69,55,29.91,29.78,12,2,12,0.00
2013-3-15,33.7,23.0,12.1,27.6,14.1,3.1,94,71,34,29.93,29.72,14,2,14,0.00
2013-3-16,32.9,25.3,16.0,24.7,13.8,9.7,90,63,40,29.97,29.79,9,1,9,0.02
2013-3-17,31.9,21.6,13.4,14.3,9.0,2.8,90,60,35,30.40,29.97,10,1,11,0.00
2013-3-18,34.9,22.3,3.6,22.1,5.0,-0.7,90,51,24,30.54,30.31,7,1,8,0.00
2013-3-19,29.0,25.9,21.3,28.2,24.8,20.0,97,96,90,30.30,29.78,28,4,29,0.00
2013-3-20,31.1,24.5,19.1,24.2,19.7,15.7,96,83,63,29.87,29.77,19,2,19,0.00
2013-3-21,37.8,24.8,11.0,18.2,14.2,8.0,95,67,30,29.88,29.69,8,1,8,0.13
2013-3-22,36.4,26.9,14.0,24.8,18.6,11.6,91,72,46,29.82,29.71,9,1,10,0.00
2013-3-23,38.5,29.1,18.7,22.5,19.6,16.4,92,69,44,29.87,29.73,12,2,14,0.00
2013-3-24,40.7,32.0,26.1,25.6,23.2,21.0,83,71,52,29.92,29.83,9,1,10,0.01
2013-3-25,38.9,30.4,19.9,29.2,24.5,17.9,92,80,61,29.85,29.60,13,2,14,0.00
2013-3-26,45.2,35.2,28.1,28.5,24.8,20.2,91,68,38,29.86,29.64,7,0,8,0.00
2013-3-27,49.4,36.8,26.0,30.7,25.2,21.0,87,65,38,29.97,29.84,9,1,9,0.00
2013-3-28,46.5,37.6,31.7,34.2,31.1,28.7,96,79,52,30.11,29.96,5,0,6,0.02
2013-3-29,51.7,39.4,32.5,35.0,32.3,28.3,97,77,45,30.14,30.07,6,0,7,0.03
2013-3-30,51.3,38.6,27.5,31.7,25.4,16.9,97,65,28,30.19,30.10,8,1,10,0.03
2013-3-31,52.7,39.6,21.3,35.9,24.5,19.6,93,60,30,30.20,29.96,11,1,14,0.03